Change the Weather History Date:

Wednesday, July 3, 2013

  Actual Average Record
Temperature  
Mean Temperature 71 °F -  
Max Temperature 82 °F 78 °F 93 °F (2012)
Min Temperature 60 °F 59 °F 48 °F (2014)
Cooling Degree Days 6    
Growing Degree Days 21 (Base 50)    
Moisture  
Dew Point 51 °F    
Average Humidity 50    
Maximum Humidity 82    
Minimum Humidity 25    
Precipitation  
Precipitation 0.00 in - - ()
Sea Level Pressure  
Sea Level Pressure 30.04 in    
Wind  
Wind Speed 3 mph (South)    
Max Wind Speed 8 mph    
Max Gust Speed -    
Visibility 10 miles    
Events      
Averages and records for this station are not official NWS values.
T = Trace of Precipitation, MM = Missing Value Source: NWS Daily Summary

Daily Weather History Graph

Daily Weather History Graph

Search for Another Location

Airport or City:

Trip Planner

Search our weather history database for the weather conditions in past years. The results will help you decide how hot, cold, wet, or windy it might be!

Date:

Astronomy

Jul. 03, 2013 Rise Set
Actual Time 5:36 AM CDT 8:58 PM CDT
Civil Twilight 5:01 AM CDT 9:33 PM CDT
Nautical Twilight 4:14 AM CDT 10:20 PM CDT
Astronomical Twilight 3:16 AM CDT 11:18 PM CDT
Moon 2:19 AM CDT (7/3) 5:06 PM CDT (7/3)
Length of Visible Light 16h 32m
Length of Day
15h 21m
Waning Crescent, 18% of the Moon is Illuminated
Jul 3
Waning Crescent
Jul 8
New
Jul 15
First Quarter
Jul 22
Full
Jul 29
Last Quarter

Hourly Weather History & Observations

Time (CDT) Temp. Dew Point Humidity Pressure Visibility Wind Dir Wind Speed Gust Speed Precip Events Conditions
12:13 AM 62.6 °F 55.4 °F 77% 30.08 in 10.0 mi Calm Calm - N/A   Clear
12:34 AM 62.6 °F 55.4 °F 77% 30.08 in 10.0 mi Calm Calm - N/A   Clear
12:54 AM 62.6 °F 55.4 °F 77% 30.08 in 10.0 mi SE 3.5 mph - N/A   Clear
1:13 AM 64.4 °F 55.4 °F 73% 30.08 in 10.0 mi SSE 4.6 mph - N/A   Clear
1:34 AM 66.2 °F 55.4 °F 68% 30.08 in 10.0 mi SSE 4.6 mph - N/A   Clear
1:54 AM 66.2 °F 57.2 °F 73% 30.07 in 10.0 mi SSE 4.6 mph - N/A   Clear
2:13 AM 66.2 °F 55.4 °F 68% 30.07 in 10.0 mi South 4.6 mph - N/A   Clear
2:34 AM 66.2 °F 55.4 °F 68% 30.07 in 10.0 mi South 4.6 mph - N/A   Clear
2:54 AM 66.2 °F 55.4 °F 68% 30.07 in 10.0 mi SSE 4.6 mph - N/A   Clear
3:13 AM 66.2 °F 55.4 °F 68% 30.06 in 10.0 mi South 3.5 mph - N/A   Clear
3:34 AM 64.4 °F 55.4 °F 73% 30.06 in 10.0 mi South 4.6 mph - N/A   Clear
3:54 AM 64.4 °F 55.4 °F 73% 30.06 in 10.0 mi South 3.5 mph - N/A   Clear
4:13 AM 64.4 °F 55.4 °F 73% 30.06 in 10.0 mi SSE 3.5 mph - N/A   Clear
4:34 AM 62.6 °F 55.4 °F 77% 30.06 in 10.0 mi Calm Calm - N/A   Clear
4:54 AM 62.6 °F 55.4 °F 77% 30.06 in 10.0 mi Calm Calm - N/A   Clear
5:14 AM 62.6 °F 55.4 °F 77% 30.06 in 10.0 mi Calm Calm - N/A   Clear
5:34 AM 62.6 °F 55.4 °F 77% 30.07 in 10.0 mi SSE 3.5 mph - N/A   Clear
5:54 AM 60.8 °F 55.4 °F 82% 30.07 in 7.0 mi Calm Calm - N/A   Clear
6:14 AM 62.6 °F 53.6 °F 72% 30.07 in 10.0 mi Calm Calm - N/A   Clear
6:34 AM 64.4 °F 55.4 °F 73% 30.07 in 10.0 mi Calm Calm - N/A   Clear
6:54 AM 64.4 °F 55.4 °F 73% 30.07 in 10.0 mi Calm Calm - N/A   Clear
7:14 AM 66.2 °F 55.4 °F 68% 30.08 in 10.0 mi Calm Calm - N/A   Clear
7:34 AM 68.0 °F 51.8 °F 56% 30.08 in 10.0 mi SSW 5.8 mph - N/A   Clear
7:54 AM 69.8 °F 51.8 °F 53% 30.08 in 10.0 mi South 4.6 mph - N/A   Clear
8:13 AM 69.8 °F 50.0 °F 49% 30.09 in 10.0 mi South 5.8 mph - N/A   Clear
8:34 AM 71.6 °F 51.8 °F 50% 30.09 in 10.0 mi South 5.8 mph - N/A   Clear
8:54 AM 71.6 °F 51.8 °F 50% 30.09 in 10.0 mi SSW 6.9 mph - N/A   Clear
9:13 AM 73.4 °F 51.8 °F 47% 30.09 in 10.0 mi South 5.8 mph - N/A   Clear
9:34 AM 73.4 °F 53.6 °F 50% 30.08 in 10.0 mi SSW 5.8 mph - N/A   Clear
9:54 AM 73.4 °F 53.6 °F 50% 30.08 in 10.0 mi South 4.6 mph - N/A   Clear
10:13 AM 75.2 °F 53.6 °F 47% 30.08 in 10.0 mi SSW 3.5 mph - N/A   Clear
10:34 AM 77.0 °F 53.6 °F 44% 30.07 in 10.0 mi SW 3.5 mph - N/A   Clear
10:54 AM 77.0 °F 51.8 °F 41% 30.07 in 10.0 mi East 3.5 mph - N/A   Scattered Clouds
11:14 AM 78.8 °F 50.0 °F 36% 30.07 in 10.0 mi East 4.6 mph - N/A   Scattered Clouds
11:34 AM 78.8 °F 48.2 °F 34% 30.07 in 10.0 mi SE 6.9 mph - N/A   Clear
11:54 AM 78.8 °F 48.2 °F 34% 30.07 in 10.0 mi SSE 6.9 mph - N/A   Clear
12:14 PM 78.8 °F 50.0 °F 36% 30.06 in 10.0 mi SSW 4.6 mph - N/A   Clear
12:34 PM 80.6 °F 46.4 °F 30% 30.06 in 10.0 mi South 8.1 mph - N/A   Clear
12:54 PM 78.8 °F 44.6 °F 30% 30.05 in 10.0 mi SE 4.6 mph - N/A   Clear
1:14 PM 80.6 °F 46.4 °F 30% 30.05 in 10.0 mi ESE 3.5 mph - N/A   Clear
1:34 PM 80.6 °F 46.4 °F 30% 30.05 in 10.0 mi SSE 6.9 mph - N/A   Clear
1:54 PM 80.6 °F 46.4 °F 30% 30.04 in 10.0 mi SE 6.9 mph - N/A   Clear
2:14 PM 80.6 °F 46.4 °F 30% 30.04 in 10.0 mi South 6.9 mph - N/A   Clear
2:34 PM 80.6 °F 44.6 °F 28% 30.03 in 10.0 mi Calm Calm - N/A   Clear
2:53 PM 80.6 °F 44.6 °F 28% 30.03 in 10.0 mi SE 4.6 mph - N/A   Clear
3:14 PM 80.6 °F 44.6 °F 28% 30.02 in 10.0 mi SE 3.5 mph - N/A   Scattered Clouds
3:33 PM 82.4 °F 44.6 °F 26% 30.01 in 10.0 mi SW 4.6 mph - N/A   Scattered Clouds
3:54 PM 82.4 °F 42.8 °F 25% 30.01 in 10.0 mi Calm Calm - N/A   Clear
4:14 PM 80.6 °F 42.8 °F 26% 30.01 in 10.0 mi Calm Calm - N/A   Clear
4:33 PM 82.4 °F 42.8 °F 25% 30.01 in 10.0 mi West 3.5 mph - N/A   Clear
4:54 PM 82.4 °F 42.8 °F 25% 30.00 in 10.0 mi Calm Calm - N/A   Clear
5:14 PM 82.4 °F 44.6 °F 26% 30.00 in 10.0 mi West 4.6 mph - N/A   Clear
5:33 PM 82.4 °F 42.8 °F 25% 29.99 in 10.0 mi Calm Calm - N/A   Clear
5:54 PM 82.4 °F 42.8 °F 25% 29.98 in 10.0 mi Calm Calm - N/A   Clear
6:14 PM 82.4 °F 42.8 °F 25% 29.98 in 10.0 mi Calm Calm - N/A   Clear
6:33 PM 82.4 °F 42.8 °F 25% 29.98 in 10.0 mi WSW 3.5 mph - N/A   Clear
6:54 PM 80.6 °F 42.8 °F 26% 29.98 in 10.0 mi Calm Calm - N/A   Clear
7:14 PM 80.6 °F 44.6 °F 28% 29.98 in 10.0 mi Calm Calm - N/A   Clear
7:33 PM 80.6 °F 48.2 °F 32% 29.98 in 10.0 mi SSW 4.6 mph - N/A   Clear
7:54 PM 78.8 °F 51.8 °F 39% 29.98 in 10.0 mi SSE 3.5 mph - N/A   Clear
8:14 PM 77.0 °F 51.8 °F 41% 29.98 in 10.0 mi Calm Calm - N/A   Clear
8:33 PM 75.2 °F 53.6 °F 47% 29.98 in 10.0 mi Calm Calm - N/A   Clear
8:54 PM 73.4 °F 53.6 °F 50% 29.98 in 10.0 mi Calm Calm - N/A   Clear
9:14 PM 71.6 °F 55.4 °F 57% 29.98 in 10.0 mi Calm Calm - N/A   Clear
9:33 PM 69.8 °F 57.2 °F 64% 29.98 in 10.0 mi Calm Calm - N/A   Clear
9:54 PM 71.6 °F 55.4 °F 57% 29.99 in 10.0 mi South 4.6 mph - N/A   Clear
10:13 PM 71.6 °F 51.8 °F 50% 29.99 in 10.0 mi South 5.8 mph - N/A   Clear
10:34 PM 71.6 °F 51.8 °F 50% 30.00 in 10.0 mi SSE 4.6 mph - N/A   Clear
10:54 PM 69.8 °F 53.6 °F 56% 30.00 in 10.0 mi SSE 4.6 mph - N/A   Scattered Clouds
11:13 PM 69.8 °F 53.6 °F 56% 30.00 in 10.0 mi South 4.6 mph - N/A   Mostly Cloudy
11:34 PM 69.8 °F 53.6 °F 56% 30.01 in 10.0 mi South 4.6 mph - N/A   Scattered Clouds
11:54 PM 69.8 °F 53.6 °F 56% 30.01 in 10.0 mi South 5.8 mph - N/A   Clear